Location: Hains Lake
(37.8540°N, 99.8578°W)
Time: 15:50:26
(UTC+00:00)

Vanguard 1 - Pass Details

Date: 01 December 2021
Orbit: 652 x 3830 km, 34.2° (Epoch: 22 January)

Event Time Altitude Azimuth Distance (km) Brightness Sun altitude
Rises 06:00:16 0° 225° (SW) 7,084 14.4 -72.9°
Enters shadow 06:01:12 - 224° (SW) 6,930 14.3 -72.9°
Exits shadow 06:43:02 18° 84° (E) 5,617 13.8 -73.7°
Drops below altitude 10° 06:46:17 10° 80° (E) 6,118 14.1 -73.5°
Sets 06:50:25 0° 76° (ENE) 6,819 14.5 -73.3°
